Location: Newark
(44.1667°N, 8.2500°E)
Time: 15:38:38
(UTC+00:00)

Explorer 11/Cluster Stage 4 - Pass Details

Date: 24 December 2019
Orbit: 467 x 1259 km, 28.8° (Epoch: 18 January)

Event Time Altitude Azimuth Distance (km) Brightness Sun altitude
Exits shadow 02:54:02 13° 148° (SSE) 2,796 9.5 -43.1°
Drops below altitude 10° 02:56:31 10° 129° (SE) 3,087 10.0 -42.6°
Sets 03:01:23 0° 105° (ESE) 4,154 11.0 -41.8°
